Antaih, Malaysia

2:10 PM MYT on February 27, 2017 (GMT +0800)
Sibu

Weather History for WBGS - January, 2014

Change the Weather History Date:

Saturday, January 11, 2014

  Actual Average Record
Temperature  
Mean Temperature 78 °F -  
Max Temperature 85 °F - - ()
Min Temperature 72 °F - - ()
Cooling Degree Days 14    
Growing Degree Days 28 (Base 50)    
Moisture  
Dew Point 73 °F    
Average Humidity 83    
Maximum Humidity 100    
Minimum Humidity 59    
Precipitation  
Precipitation 0.00 in - - ()
Sea Level Pressure  
Sea Level Pressure 29.87 in    
Wind  
Wind Speed 4 mph ()    
Max Wind Speed 12 mph    
Max Gust Speed -    
Visibility 8.1 miles    
Events      
T = Trace of Precipitation, MM = Missing Value Source: Averaged Metar Reports

Daily Weather History Graph

Daily Weather History Graph

Search for Another Location

Airport or City:

Trip Planner

Search our weather history database for the weather conditions in past years. The results will help you decide how hot, cold, wet, or windy it might be!

Date:

Astronomy

Jan. 11, 2014 Rise Set
Actual Time 6:40 AM MYT 6:40 PM MYT
Civil Twilight 6:18 AM MYT 7:02 PM MYT
Nautical Twilight 5:52 AM MYT 7:28 PM MYT
Astronomical Twilight 5:26 AM MYT 7:54 PM MYT
Moon 2:48 PM MYT (1/11) 2:29 AM MYT (1/11)
Length of Visible Light 12h 44m
Length of Day
11h 59m
Waxing Gibbous, 79% of the Moon is Illuminated
Jan 11
Waxing Gibbous
Jan 16
Full
Jan 24
Last Quarter
Jan 31
New
Feb 7
First Quarter

Hourly Weather History & Observations

Time (MYT) Temp. Heat Index Dew Point Humidity Pressure Visibility Wind Dir Wind Speed Gust Speed Precip Events Conditions
12:00 AM 73.4 °F - 71.6 °F 94% 29.89 in 6.2 mi ENE 4.6 mph - N/A   Mostly Cloudy
1:00 AM 73.4 °F - 73.4 °F 100% 29.89 in 6.2 mi ENE 3.5 mph - N/A   Mostly Cloudy
2:00 AM 74 °F - 73 °F 95% 29.89 in 9 mi WSW 1.2 mph - -   Partly Cloudy
2:00 AM 73.4 °F - 73.4 °F 100% 29.89 in 6.2 mi WSW 1.2 mph - N/A   Mostly Cloudy
3:00 AM 73.4 °F - 73.4 °F 100% 29.86 in 6.2 mi West 1.2 mph - N/A   Mostly Cloudy
4:00 AM 73.4 °F - 73.4 °F 100% 29.86 in 6.2 mi WNW 2.3 mph - N/A   Mostly Cloudy
5:00 AM 74 °F - 71 °F 88% 29.88 in 9 mi WNW 3.5 mph - -   Partly Cloudy
5:00 AM 73.4 °F - 71.6 °F 94% 29.86 in 6.2 mi WNW 3.5 mph - N/A   Mostly Cloudy
6:00 AM 73.4 °F - 71.6 °F 94% 29.89 in 6.2 mi Calm Calm - N/A   Mostly Cloudy
7:00 AM 73.4 °F - 71.6 °F 94% 29.89 in 6.2 mi East 3.5 mph - N/A   Mostly Cloudy
8:00 AM 75 °F - 71 °F 85% 29.91 in 19 mi Calm Calm - -   Scattered Clouds
8:00 AM 75.2 °F - 71.6 °F 89% 29.89 in 6.2 mi Calm Calm - N/A   Mostly Cloudy
9:00 AM 78.8 °F - 73.4 °F 83% 29.92 in 6.2 mi NNE 3.5 mph - N/A   Mostly Cloudy
10:00 AM 78.8 °F - 73.4 °F 83% 29.92 in 6.2 mi NNE 5.8 mph - N/A   Mostly Cloudy
11:00 AM 83 °F - 73 °F 65% 29.91 in 19 mi NNE 5.8 mph - -   Mostly Cloudy
11:00 AM 82.4 °F 88.2 °F 73.4 °F 74% 29.89 in 6.2 mi NNE 5.8 mph - N/A   Mostly Cloudy
12:00 PM 84.2 °F 90.9 °F 73.4 °F 70% 29.89 in 6.2 mi North 6.9 mph - N/A   Mostly Cloudy
1:00 PM 84.2 °F 92.3 °F 75.2 °F 74% 29.86 in 6.2 mi North 11.5 mph - N/A   Mostly Cloudy
2:00 PM 85 °F - 73 °F 59% 29.84 in 19 mi North 11.5 mph - -   Partly Cloudy
2:00 PM 86.0 °F 93.4 °F 73.4 °F 66% 29.83 in 6.2 mi North 11.5 mph - N/A   Mostly Cloudy
3:00 PM 84.2 °F 90.9 °F 73.4 °F 70% 29.80 in 6.2 mi NNE 11.5 mph - N/A   Mostly Cloudy
4:00 PM 86.0 °F 93.4 °F 73.4 °F 66% 29.77 in 6.2 mi North 6.9 mph - N/A   Mostly Cloudy
5:00 PM 84 °F - 73 °F 63% 29.80 in 19 mi NNE 9.2 mph - -   Partly Cloudy
5:00 PM 84.2 °F 90.9 °F 73.4 °F 70% 29.77 in 6.2 mi NNE 9.2 mph - N/A   Mostly Cloudy
6:00 PM 82.4 °F 88.2 °F 73.4 °F 74% 29.80 in 6.2 mi North 5.8 mph - N/A   Mostly Cloudy
7:00 PM 78.8 °F - 73.4 °F 83% 29.83 in 6.2 mi North 3.5 mph - N/A   Mostly Cloudy
8:00 PM 78 °F - 74 °F 82% 29.86 in 9 mi NNE 3.5 mph - -   Partly Cloudy
8:00 PM 77.0 °F - 73.4 °F 89% 29.86 in 6.2 mi NNE 3.5 mph - N/A   Mostly Cloudy
9:00 PM 77.0 °F - 73.4 °F 89% 29.89 in 6.2 mi NNE 1.2 mph - N/A   Mostly Cloudy
10:00 PM 77.0 °F - 73.4 °F 89% 29.92 in 6.2 mi NNE 1.2 mph - N/A   Mostly Cloudy
11:00 PM 76 °F - 74 °F 91% 29.92 in 9 mi North 1.2 mph - -   Partly Cloudy
11:00 PM 77.0 °F - 73.4 °F 89% 29.92 in 6.2 mi North 1.2 mph - N/A   Mostly Cloudy